Location: Most
(50.5133°N, 13.6207°E)
Time: 22:10:40
(UTC+02:00)

ISS - Pass Details

Date: 20 September 2024
Orbit: 412 x 424 km, 51.6° (Epoch: 09 October)

Event Time Altitude Azimuth Distance (km) Brightness Sun altitude
Rises 22:04:39 0° 285° (WNW) 2,381 1.1 -26.9°
Reaches altitude 10° 22:06:46 10° 283° (WNW) 1,518 -0.1 -27.2°
Enters shadow 22:07:58 20° 280° (W) 1,040 -1.2 -27.3°
